704  
ASUS43 KMPX 211910  
RWRMN  
WEATHER ROUNDUP FOR MINNESOTA  
NATIONAL WEATHER SERVICE TWIN CITIES/CHANHASSEN MN  
200 PM CDT TUE OCT 21 2014  
 
NOTE: "FAIR" INDICATES FEW OR NO CLOUDS BELOW 12,000 FEET WITH NO  
SIGNIFICANT WEATHER AND/OR S TO VISIBILITY
. N/A MEANS  
CURRENT SKY AND/OR WEATHER CONDITIONS ARE NOT AVAILABLE.  
 
MNZ060>063-068>070-212000-  
TWIN CITIES METRO  
 
CITY SKY/WX TMP DP RH WIND PRES REMARKS
 
TWIN CITIES SUNNY 55 40 56 SE9 30.17F  
ST PAUL SUNNY 56 40 55 S8 30.18F  
CRYSTAL SUNNY 57 39 51 SE10G17 30.15F  
BLAINE SUNNY 57 41 54 SE12G17 30.17F  
LAKEVILLE SUNNY 55 41 58 E9 30.16F  
EDEN PRAIRIE SUNNY 57 41 55 SE12 30.15F  
SOUTH ST PAUL SUNNY 55 39 54 SE7 30.17F  
LAKE ELMO FAIR 54 41 62 SE10 30.19F  

 
MNZ001>005-007-008-013>017-022>024-027-028-212000-  
NORTHWEST MINNESOTA  
 
CITY SKY/WX TMP DP RH WIND PRES REMARKS
 
BEMIDJI SUNNY 54 40 58 SE18G24 30.07F  
HALLOCK SUNNY 63 41 45 SE24 29.93F  
ROSEAU SUNNY 57 43 58 SE15 30.01F  
WARROAD SUNNY 55 43 62 SE14G22 30.03F  
THIEF RVR FALL SUNNY 59 39 47 SE20G28 29.98F  
CROOKSTON SUNNY 63 41 45 S23G29 29.96F  
FOSSTON SUNNY 61 37 41 SE16 30.00F  
DETROIT LAKES SUNNY 59 41 51 SE18G29 30.01F  
MOORHEAD SUNNY 64 39 39 SE17G28 29.95F  
PARK RAPIDS SUNNY 55 38 52 SE16 30.08F  
MAHNOMEN FAIR 59 40 48 SE21 29.99F  

 
MNZ006-009>011-018-025>026-212000-  
NORTH CENTRAL MINNESOTA  
 
CITY SKY/WX TMP DP RH WIND PRES REMARKS
 
BAUDETTE SUNNY 54 38 54 SE14G21 30.07F  
FLAG ISLAND SUNNY 48 41 76 S17 30.04F  
INTL FALLS SUNNY 48 36 63 SE18G24 30.15F  
WASKISH SUNNY 54 39 58 E16G23 30.08F  
BIG FORK SUNNY 52 37 58 SE10 30.14F  
LONGVILLE SUNNY 54 37 54 SE9G17 30.11F  
GRAND RAPIDS SUNNY 48 36 61 SE12G17 30.16S  
CRANE LAKE CLOUDY 43 36 75 SE3 30.22F  
ORR CLOUDY 46 34 61 SE8 30.16F  
COOK CLOUDY 45 36 70 SE9G17 30.20F  
WALKER FAIR 53 38 57 SE10G18 30.09F  

 
MNZ012-019>021-037-212000-  
NORTHEAST MINNESOTA  
 
CITY SKY/WX TMP DP RH WIND PRES REMARKS
 
DULUTH CLOUDY 44 34 67 E16 30.21F  
ELY CLOUDY 41 34 75 SE10 30.23S  
HIBBING CLOUDY 48 35 60 SE13 30.19F  
EVELETH CLOUDY 43 34 70 SE12 30.22S  
DULUTH HARBOR PTSUNNY 46 39 76 NE14 30.24F  
TWO HARBORS CLOUDY 45 28 53 E10 30.23S  
SILVER BAY PTSUNNY 43 36 75 E8 30.24S  
GRAND MARAIS N/A 43 32 65 E8 30.29F  
G MARAIS ARPRT MOSUNNY 39 28 65 SE7 30.25F  

 
MNZ029>031-032-039>041-046>048-054>057-064-212000-  
WEST CENTRAL MINNESOTA  
 
CITY SKY/WX TMP DP RH WIND PRES REMARKS
 
FERGUS FALLS SUNNY 63 37 39 SE23 30.01F  
WHEATON SUNNY 64 41 42 SE26 29.98F  
MORRIS SUNNY 64 43 45 SE24G32 30.00F  
ALEXANDRIA SUNNY 58 41 53 SE18G28 30.07F  
ELBOW LAKE FAIR 61 42 48 SE20G30 30.01F  
WADENA N/A 55 39 54 SE18G24 30.07F  
GLENWOOD SUNNY 61 43 51 SE16G23 30.07F  
APPLETON SUNNY 66 39 37 SE16G23 30.01F  
BENSON SUNNY 63 43 48 S16G23 30.04F  
ORTONVILLE SUNNY 66 41 39 SE17G28 29.98F  
MADISON SUNNY 70 43 37 SE20G29 30.00F  
WILLMAR FAIR 63 39 42 SE20 30.09F  

 
MNZ033>034-036-042>043-049>051-058-059-212000-  
CENTRAL MINNESOTA  
 
CITY SKY/WX TMP DP RH WIND PRES REMARKS
 
ST CLOUD SUNNY 59 39 47 SE17 30.14F  
SAUK CENTRE FAIR 58 41 54 SE16G22 30.09F  
PAYNESVILLE SUNNY 56 40 55 E13 30.11F  
AITKIN SUNNY 57 39 51 SE6 30.14F  
PINE RIVER SUNNY 54 41 62 SE10 30.14F  
BRAINERD SUNNY 53 39 59 SE8 30.13F  
STAPLES SUNNY 55 37 50 SE13G18 30.10F  
LONG PRAIRIE FAIR 55 39 54 E13G21 30.10F  
LITTLE FALLS SUNNY 54 37 54 SE14 30.13F  
LITCHFIELD SUNNY 61 43 51 SE15 30.12F  
BUFFALO SUNNY 55 39 53 SE10 30.16F  
MAPLE LAKE SUNNY 57 43 58 E8 30.15F  

 
MNZ037-044-045-052-053-212000-  
EAST CENTRAL MINNESOTA  
 
CITY SKY/WX TMP DP RH WIND PRES REMARKS
 
PRINCETON SUNNY 55 39 54 SE9 30.16F  
MORA SUNNY 54 37 54 SE8 30.19S  
CAMBRIDGE SUNNY 57 41 54 SE7 30.15F  
RUSH CITY MOSUNNY 55 38 53 SE5 30.18S  
MOOSE LAKE SUNNY 52 34 50 SE6 30.16F  
HINCKLEY FAIR 54 37 54 CALM 30.18S  
CLOQUET MOSUNNY 46 36 66 E9 30.20F  
MCGREGOR SUNNY 54 37 54 E10 30.17F  

 
MNZ071>073-080-081-089-090-097-098-212000-  
SOUTHWEST MINNESOTA  
 
CITY SKY/WX TMP DP RH WIND PRES REMARKS
 
MONTEVIDEO SUNNY 66 41 39 S18G26 30.04F  
GRANITE FALLS SUNNY 65 40 40 SE16G23 30.06F  
CANBY SUNNY 72 41 32 SE14G23 30.01F  
MARSHALL SUNNY 70 41 35 SE18G24 30.02F  
REDWOOD FALLS SUNNY 65 40 39 SE17 30.07F  
OLIVIA SUNNY 63 39 42 SE17 30.08F  
PIPESTONE SUNNY 72 37 28 S17G23 30.02F  
WINDOM SUNNY 66 39 37 SE12 30.08F  
WORTHINGTON SUNNY 66 41 39 S10G18 30.07F  
JACKSON SUNNY 66 36 32 SE12 30.10S  
TRACY SUNNY 69 42 37 SE16G22 30.05F  
SLAYTON SUNNY 70 37 29 SE15G21 30.05F  

 
MNZ065>067-074>077-082>085-091>093-212000-  
SOUTH CENTRAL MINNESOTA  
 
CITY SKY/WX TMP DP RH WIND PRES REMARKS
 
MANKATO SUNNY 61 39 44 S14 30.13F  
NEW ULM SUNNY 63 43 48 SE12 30.10F  
ST JAMES SUNNY 66 39 37 SE10 30.11F  
FAIRMONT SUNNY 63 37 39 S14 30.10F  
GLENCOE SUNNY 61 44 52 E15 30.12F  
FARIBAULT SUNNY 61 43 51 SE10 30.15F  
OWATONNA SUNNY 59 41 51 SE7 30.15F  
WASECA SUNNY 59 36 41 SE8 30.16F  
ALBERT LEA SUNNY 61 41 48 SE12 30.14F  

 
MNZ078>079-086>088-094>096-212000-  
SOUTHEAST MINNESOTA  
 
CITY SKY/WX TMP DP RH WIND PRES REMARKS
 
ROCHESTER SUNNY 54 40 59 SE7 30.18F  
RED WING SUNNY 55 37 50 SE8 30.18F  
STANTON SUNNY 57 41 54 SE9 30.16F  
DODGE CENTER SUNNY 57 43 58 SE7 30.17F  
WINONA SUNNY 54 37 54 SE3 30.21F  
AUSTIN SUNNY 57 43 58 SE7 30.16F  
PRESTON SUNNY 53 39 58 E7 30.19F  

 
ABBREVIATIONS USED IN REMARKS  
TC - TEMPERATURES IN CELSIUS  
WCI - WIND CHILL INDEX  
HX - HEAT INDEX  
VSB - VISIBILITY  

 
 
CLICK HERE TO GO TO PREVIOUS BULLETINS.

The Nexlab MN Page Main Text Page